SCP
0 0 0 0 0 0 0 0 0 0 0 0 0 0 0 0 0 0 0 0 0 0 0 0 0 0 0 0 0 0 0 0 0 0 0 0 0 0 0 0 0 0 0 0 0 0 0 0 0 0 0 0 0 0
0 0 0 0 0 0 0 0 0 0 0 0 0 0 0 0 0 0 0 0 0 0 0 -0 0 0 0 0 0 0 0 0 0 0 0 0 0 0 0 0 0 0 0 0 0 0 0 0 0 0 0 0 0 0
0 0 0 0 0 0 0 0 0 0 0 0 0 0 0 0 0 0 0 0 0 0 0 0 0 0 0 0 0 0 0 0 0 0 0 0 0 0 0 0 0 0 0 0 0 0 0 0 -0 0 0 0 0 0
0 0 0 0 0 0 0 0 0 0 0 0 0 0 0 0 0 0 0 0 0 0 0 0 0 0 0 0 0 0 0 0 0 0 0 0 0 0 0 0 0 0 0 0 0 0 0 0 0 0 0 0 0 0
0 0 0 0 0 0 0 0 0 0 0 0 0 0 0 0 0 0 0 0 0 0 0 -0 -0 0 0 0 0 0 0 0 0 0 0 0 0 0 -0 -0 0 0 0 0 0 1 0 0 0 0 0 0 0 0
0 0 0 0 0 0 0 0 0 0 0 0 0 0 0 0 0 0 0 0 0 0 0 0 0 0 0 0 0 0 0 0 0 0 0 0 0 0 -0 -0 -0 -0 0 0 0 1 0 0 0 0 0 0 0 0
0 0 0 0 0 0 0 0 0 0 0 0 0 0 0 0 0 0 0 0 0 -0 0 0 0 0 0 0 0 0 0 0 0 0 0 0 0 0 0 0 0 0 0 0 0 0 0 0 0 0 0 0 0 0
0 0 0 0 0 0 0 0 0 0 0 0 0 0 0 0 0 0 0 0 0 0 0 0 0 0 0 0 0 0 0 0 0 0 0 0 0 0 0 -0 0 0 0 0 0 0 0 0 0 0 -0 0 0 0
0 0 0 0 0 0 0 0 0 0 0 0 0 0 0 0 0 0 0 0 0 0 0 0 -0 -0 0 0 0 0 0 0 0 0 0 0 0 0 0 0 0 0 -0 0 0 0 0 0 0 0 0 0 0 0
0 0 0 0 0 0 0 0 0 0 0 0 0 0 0 0 0 0 0 0 0 0 0 0 0 -0 -0 0 0 0 0 0 0 0 0 0 0 0 0 0 0 0 -0 0 0 0 0 -0 -0 0 0 0 0 0
0 0 0 0 0 0 0 0 0 0 0 0 0 0 0 0 0 0 0 0 0 0 0 -0 0 -0 0 -0 0 0 0 -0 -0 0 -0 -0 0 0 -0 -0 0 -0 -0 0 0 0 0 0 0 0 0 0 0 0
0 0 0 0 0 0 0 0 0 0 0 0 0 0 0 0 0 0 0 0 0 0 0 -0 0 0 0 0 -0 0 -0 0 0 0 0 0 0 0 0 -0 0 -0 0 -0 -0 0 0 0 0 0 0 0 0 1
0 0 0 0 0 0 0 0 0 0 0 0 0 0 0 0 -0 -0 0 0 0 0 0 0 0 0 0 0 -0 -0 -0 -0 0 0 0 0 0 0 0 0 0 0 0 0 0 0 0 0 0 0 0 0 0 0
0 0 0 0 0 0 0 0 0 0 0 0 0 0 0 0 -0 0 -0 -0 0 0 0 0 0 0 0 -0 -0 -0 -0 -0 0 -0 0 0 0 0 0 0 0 0 0 0 0 0 0 0 0 0 0 0 0 0
0 0 0 0 -0 -0 0 0 0 0 0 0 0 0 0 0 0 -0 -0 -0 0 -0 0 0 0 0 0 0 0 0 -0 -0 0 0 0 0 0 0 0 0 0 0 0 0 0 0 0 0 0 0 0 0 0 0
0 0 0 0 0 0 0 0 0 0 0 0 0 0 0 0 0 -0 0 -0 0 -0 0 0 0 0 0 0 0 0 0 -0 -0 0 0 -0 0 0 -0 0 0 0 0 0 0 0 0 0 0 0 0 0 0 0
0 0 0 0 0 0 0 0 0 0 0 0 0 0 0 0 0 0 0 0 0 0 -0 0 0 0 0 0 -0 -0 -0 -0 0 0 0 0 0 0 0 -0 -0 0 0 0 0 0 0 0 0 0 0 0 0 0
0 0 0 0 0 0 0 0 0 0 0 0 0 0 0 0 0 0 0 0 0 0 -0 0 -0 -0 -0 -0 -0 -0 -0 0 0 0 0 0 0 0 0 -0 -0 0 0 0 0 0 0 0 0 0 0 0 0 1
0 0 0 0 0 0 0 0 0 0 0 0 0 0 0 0 0 0 0 0 0 0 0 0 0 -0 -0 0 -0 -0 -0 0 0 0 -0 0 0 0 0 0 0 0 0 0 0 -0 0 0 0 0 0 0 0 0
-0 0 0 0 0 0 0 0 0 0 0 0 0 0 0 0 0 0 0 0 0 0 0 0 0 -0 0 0 0 -0 0 -0 0 -0 0 -0 0 -0 0 0 0 0 0 0 0 0 0 0 0 -0 -0 -0 0 0
0 0 0 0 0 0 0 0 0 0 0 0 0 0 0 0 0 0 0 0 0 0 0 0 0 0 -0 -0 -0 0 0 0 -0 0 0 0 -0 -0 0 0 0 0 0 0 -0 0 0 0 0 -0 0 -0 -0 0
0 0 -0 -0 0 0 0 0 0 0 0 0 -0 0 0 0 0 0 0 0 0 0 0 0 0 -0 0 0 0 0 0 -0 -0 0 0 0 0 0 0 -0 0 0 0 0 0 0 0 0 0 0 0 0 0 0
0 0 0 0 0 0 0 0 0 0 -0 -0 -0 0 0 0 0 0 0 0 0 0 0 0 0 0 0 0 0 0 0 0 0 0 0 0 0 0 0 0 0 0 0 0 0 0 0 0 0 0 0 0 0 0
0 0 0 0 0 0 0 0 0 0 -0 -0 0 0 0 0 0 0 0 0 0 0 0 0 0 0 0 -0 0 0 0 0 0 0 0 0 0 0 0 0 0 0 0 0 0 0 0 0 0 0 0 0 0 0
0 0 0 0 0 0 0 0 0 -0 -0 0 0 0 0 0 0 0 0 0 0 0 0 0 0 0 0 0 0 0 0 -0 -0 0 0 0 0 0 0 0 0 0 0 -0 -0 -0 0 0 0 0 0 0 0 0
0 0 0 0 0 0 0 0 0 0 0 0 0 0 -0 0 0 0 0 0 -0 0 0 0 -0 -0 0 0 0 0 0 0 0 0 0 -0 0 0 0 0 0 0 0 -0 -0 0 0 0 0 0 0 0 0 0
0 0 -0 -0 0 0 0 0 0 0 0 0 -0 -0 0 0 0 -0 -0 -0 -0 -0 -0 -0 0 0 0 0 0 0 -0 0 0 0 0 0 0 0 0 0 0 0 0 0 -0 0 -0 -0 0 0 0 0 0 0
0 0 0 0 0 0 0 0 0 0 0 0 0 0 0 0 0 -0 -0 -0 -0 0 0 0 0 0 0 0 0 0 0 0 0 0 -0 0 0 0 0 0 0 0 0 -0 -0 0 -0 -0 -0 -0 -0 -0 0 0
0 0 0 0 0 0 0 0 0 0 0 0 0 0 0 0 -0 0 0 0 0 0 0 0 0 0 0 -0 -0 0 0 0 0 0 -0 0 0 0 0 -0 -0 0 0 -0 -0 -0 -0 -0 -0 -0 0 0 0 0
-0 0 0 0 0 0 0 0 0 0 -0 0 0 0 0 0 0 0 0 0 0 -0 0 0 0 0 0 -0 0 0 0 0 -0 0 -0 0 -0 0 0 0 0 0 0 0 0 0 0 0 0 0 0 0 0 0
0 0 0 0 0 0 0 0 0 0 -0 -0 -0 0 0 0 0 0 0 0 0 -0 0 0 -0 0 -0 0 0 -0 -0 -0 0 -0 0 -0 0 0 0 0 0 0 0 0 -0 0 0 0 0 0 -0 -0 -0 -0
0 0 0 0 0 0 0 0 -0 -0 -0 0 0 0 0 0 0 0 0 0 0 0 -0 0 -0 -0 0 0 0 0 0 -0 -0 -0 -0 -0 0 -0 -0 -0 -0 0 0 0 -0 -0 -0 -0 0 0 0 0 0 0
0 0 0 0 0 0 0 0 0 0 0 0 0 0 0 0 0 0 0 0 0 -0 -0 -0 -0 0 0 -0 -0 -0 -0 -0 -0 -0 -0 -0 -0 -0 -0 -0 -0 -0 -0 -0 0 -0 -0 -0 -0 -0 -0 -0 -0 -0
Wind_Speed_500mb
31 27 27 27 27 27 24 23 21 23 25 27 27 25 23 24 22 19 16 15 12 16 43 52 39 39 35 30 10 30 22 13 7 8 7 9 6 8 9 8 12 12 11 9 7 7 12 24 20 14 12 18 33 46
29 27 25 25 25 27 24 21 23 24 24 25 27 26 28 28 29 24 27 24 29 31 43 56 56 58 56 47 41 23 26 21 4 6 9 6 6 7 11 11 12 9 10 10 17 15 21 9 55 34 35 31 22 56
30 26 24 23 24 25 26 22 27 23 23 27 28 29 32 32 26 24 26 25 25 22 52 33 18 13 29 44 41 31 24 17 5 10 15 6 5 8 6 8 14 18 16 9 7 8 13 39 59 53 40 39 30 52
29 25 23 23 25 27 27 24 23 23 24 26 30 33 35 30 24 20 23 18 20 15 12 23 22 38 30 32 23 47 60 49 41 18 22 6 3 11 5 7 2 8 28 13 7 13 4 24 39 32 23 40 40 35
29 26 23 23 25 27 27 25 23 24 25 27 32 39 34 27 24 22 23 27 23 18 11 35 77 35 20 37 34 34 40 41 35 6 5 6 9 3 6 3 8 1 3 6 7 28 11 14 23 31 38 49 45 43
27 26 25 25 26 29 30 26 25 29 24 26 32 32 26 25 22 19 7 10 9 20 13 7 30 45 18 18 33 41 39 36 30 5 6 10 19 8 5 6 7 14 20 12 14 64 15 9 33 33 22 47 42 46
26 26 26 26 28 31 31 26 26 27 21 24 25 28 29 26 22 14 10 11 18 22 8 10 13 10 26 19 28 25 39 16 14 5 16 20 15 17 5 9 15 31 31 29 35 61 25 11 12 36 44 57 46 44
27 26 27 27 28 30 32 29 29 24 21 23 27 33 36 31 27 18 14 22 20 13 8 6 9 12 27 15 7 4 3 20 17 15 7 13 14 11 8 20 46 52 52 47 38 47 34 12 12 22 78 58 56 51
28 27 28 27 28 30 31 30 27 26 22 23 29 33 22 5 6 9 17 15 17 14 6 7 6 6 18 18 9 6 8 5 9 6 10 14 9 12 16 34 31 20 16 37 40 54 26 6 32 55 58 51 52 53
31 28 29 29 28 28 29 30 27 24 17 21 23 7 7 9 16 18 6 2 7 10 11 9 18 9 6 13 8 9 3 4 4 10 17 10 20 44 32 37 38 31 26 40 58 48 57 91 85 31 9 42 52 49
30 30 30 29 29 27 26 26 23 14 3 8 5 6 15 23 11 5 6 7 10 8 13 12 19 12 11 4 4 9 5 6 6 8 11 9 7 31 73 69 74 70 53 48 56 49 73 57 31 16 12 10 22 43
30 30 29 28 27 26 24 21 16 8 10 11 21 29 13 8 8 7 6 6 8 5 7 7 11 11 9 7 4 5 5 6 8 10 6 6 9 30 36 58 71 69 59 58 47 48 53 33 29 18 7 15 28 33
30 28 28 26 26 24 19 18 13 11 12 5 7 7 8 10 6 9 7 5 4 6 9 9 5 9 7 10 10 3 8 9 24 6 6 2 20 26 16 13 9 70 62 62 48 35 31 33 31 19 12 7 14 21
27 26 24 23 21 18 16 13 8 7 4 7 8 8 8 9 8 5 6 3 8 14 18 16 7 7 6 4 3 7 6 6 4 6 3 3 19 27 32 21 17 19 45 50 38 33 21 12 16 13 7 12 20 23
23 21 21 17 16 12 9 8 6 5 5 7 9 7 10 8 15 20 16 5 9 17 14 9 12 11 6 3 2 6 7 8 5 7 8 30 16 21 9 20 36 17 27 31 33 35 28 12 16 18 16 13 18 24
18 14 9 6 8 7 7 9 7 7 6 8 12 12 23 22 21 24 26 21 21 13 19 6 6 5 10 7 13 12 6 1 4 4 26 28 9 22 23 6 26 31 22 19 25 30 21 14 18 10 14 7 21 29
15 10 5 6 7 7 9 7 6 8 9 10 14 25 29 24 30 17 28 23 21 22 4 5 7 6 8 5 2 5 1 9 22 19 21 16 6 21 23 28 19 30 38 36 34 23 7 10 12 21 27 23 26 42
13 8 11 8 11 10 12 8 6 7 11 18 23 28 28 27 30 30 24 19 21 15 11 3 7 4 7 10 5 1 8 20 32 29 28 9 12 18 21 23 23 25 27 27 23 15 8 8 7 3 8 21 22 19
24 13 11 9 9 6 5 7 11 10 22 25 29 35 31 30 34 35 34 31 25 24 15 13 2 3 3 12 2 8 36 8 11 6 8 8 11 13 14 14 17 18 21 22 30 20 17 13 16 15 27 24 9 12
24 13 13 12 12 8 6 8 10 12 13 13 26 33 33 28 32 33 41 30 28 22 6 5 4 11 7 21 14 15 16 7 8 10 10 5 6 12 7 10 6 10 11 11 8 9 15 10 6 17 19 22 10 13
23 15 16 13 10 15 9 9 12 16 16 13 27 31 18 24 30 31 35 31 27 8 11 23 28 31 15 17 17 17 16 14 16 14 15 15 15 4 4 5 8 16 16 17 11 15 23 21 5 11 6 7 10 10
13 11 8 10 8 9 13 16 14 12 10 21 33 26 19 15 19 30 28 25 25 33 37 37 41 19 28 9 1 2 5 13 16 16 10 15 14 13 15 3 9 10 16 5 9 14 18 16 9 6 8 7 7 2
16 14 7 10 9 9 15 13 11 7 5 8 10 8 8 9 10 6 7 13 14 4 3 7 3 4 6 11 14 15 13 17 16 15 16 19 18 15 16 15 12 18 17 20 15 12 14 8 14 9 11 12 9 13
9 6 7 7 13 9 10 9 10 8 8 11 6 10 10 11 16 8 8 7 5 7 7 10 12 11 11 16 16 16 16 12 18 16 17 16 19 20 19 20 25 8 3 8 13 20 25 24 22 20 12 15 14 14
9 9 9 9 10 8 8 7 11 8 8 6 4 9 1 7 4 5 5 6 5 5 9 14 16 17 19 22 22 21 23 17 24 18 18 22 18 22 21 3 2 15 20 18 17 21 22 21 18 16 18 14 13 4
6 10 13 10 9 9 7 5 4 4 11 5 6 3 3 4 5 6 4 6 16 18 14 16 21 20 23 24 26 25 14 9 16 17 19 14 16 22 9 7 10 7 12 18 24 29 29 28 23 21 15 7 8 1
6 10 18 18 15 12 10 11 16 8 11 6 3 3 3 6 3 4 1 9 11 20 23 13 16 20 21 25 20 12 16 11 9 4 6 9 14 10 5 12 7 10 9 22 15 19 24 28 25 7 7 11 7 3
14 11 8 13 16 16 14 11 6 5 5 10 9 4 6 7 5 6 6 13 25 17 16 18 24 19 7 8 10 13 13 9 6 18 2 13 19 15 9 8 13 13 12 28 16 17 22 25 23 16 9 9 1 0
15 13 12 19 16 9 8 8 9 6 7 15 8 6 8 9 18 21 25 28 11 20 18 6 13 18 12 5 20 12 4 4 8 11 23 28 26 14 10 12 11 10 4 17 23 22 25 29 31 25 18 15 9 4
24 27 18 8 5 7 17 17 14 16 22 25 13 12 22 22 18 28 24 8 8 8 14 3 11 15 12 13 11 12 16 10 7 13 21 18 13 13 7 7 17 18 14 15 12 16 24 31 37 39 35 35 35 41
10 6 16 21 15 19 27 30 26 30 18 18 28 18 13 25 20 6 6 6 7 14 14 10 8 11 20 31 16 15 26 29 29 29 31 24 15 15 15 14 17 17 16 17 27 25 20 20 25 33 36 35 29 27
24 26 28 21 23 25 20 24 20 12 13 15 7 6 4 7 8 10 4 5 11 24 21 24 20 28 30 27 29 30 28 29 21 24 26 32 27 22 20 22 26 23 29 32 28 27 28 32 32 34 42 40 37 34
24 26 25 26 21 9 3 7 5 7 5 6 5 5 11 6 6 5 3 3 11 17 24 27 33 29 23 14 9 18 30 29 29 28 25 26 30 36 29 29 31 31 33 30 29 33 35 40 48 51 51 48 48 48
Wind_Direction_500mb
319 319 319 321 324 324 326 327 323 326 327 330 337 347 348 336 330 310 273 290 250 270 286 287 283 291 299 298 302 330 322 6 307 291 243 265 284 272 274 265 254 174 148 155 163 172 257 302 173 139 196 110 93 123
317 315 314 316 319 322 326 329 325 317 319 327 327 325 323 322 320 301 291 274 283 276 262 282 283 273 271 264 278 292 296 303 301 331 356 327 290 313 290 276 295 269 168 198 175 199 212 242 303 154 151 125 110 137
313 310 311 314 318 320 318 310 311 322 325 324 324 325 322 318 312 304 282 284 294 290 300 277 297 333 300 264 251 255 271 257 353 10 277 302 323 22 325 18 326 345 32 166 95 266 144 195 251 185 148 146 137 152
308 303 303 309 316 316 316 320 316 322 322 324 326 326 323 316 310 296 279 274 292 283 276 294 309 287 268 251 248 240 247 268 283 284 297 263 306 36 334 303 330 309 314 308 208 242 38 294 297 138 138 155 159 151
302 296 297 303 311 313 307 309 312 314 315 321 327 328 325 319 315 307 292 281 273 266 295 302 304 300 282 249 237 233 238 243 269 222 250 280 326 17 314 298 251 225 331 9 308 340 126 268 272 247 162 157 167 168
294 289 292 298 308 314 310 297 294 299 304 315 326 334 329 317 320 335 301 245 314 269 280 306 280 301 276 240 223 236 229 244 237 213 223 242 244 196 243 268 31 305 269 278 288 328 301 32 209 228 176 156 153 160
288 286 289 296 305 316 319 303 290 300 305 313 318 327 329 321 304 277 265 294 308 333 296 290 277 311 342 246 254 233 218 203 222 223 241 238 255 200 237 247 272 282 278 294 331 351 358 47 178 211 202 177 165 164
283 282 286 293 301 311 318 312 296 293 291 304 308 313 315 309 305 293 276 286 269 276 253 273 272 279 5 343 350 192 227 195 202 208 253 247 243 205 255 232 246 248 264 280 286 336 335 340 327 219 266 175 166 167
280 280 281 289 298 305 311 315 310 297 282 298 308 315 310 326 307 300 313 299 238 219 262 248 293 326 0 3 321 174 220 189 201 219 200 212 216 224 220 203 194 185 238 252 270 293 324 330 257 250 247 170 171 168
280 278 278 285 294 302 306 311 315 308 290 296 312 328 294 338 310 306 296 233 208 212 231 250 260 268 352 8 332 319 296 247 247 217 188 213 242 245 220 221 230 223 189 235 236 240 220 238 223 232 121 169 183 182
275 274 276 283 293 300 304 307 312 321 351 337 306 271 310 319 297 250 253 216 190 232 217 242 252 262 279 170 241 265 257 193 250 202 196 207 239 228 226 223 235 242 225 235 235 216 229 265 289 311 249 226 169 157
268 271 274 280 290 298 299 301 300 259 283 290 299 299 304 260 235 241 217 215 209 266 201 240 249 226 258 240 214 280 289 283 264 346 229 245 254 282 211 218 223 232 233 235 236 247 241 262 276 275 261 178 155 159
266 268 271 281 290 293 286 289 279 271 282 276 267 265 222 237 258 233 223 189 225 201 240 233 247 208 230 239 227 188 236 247 326 250 248 15 345 12 23 3 248 222 227 234 238 244 242 247 245 257 241 182 164 183
262 264 269 280 286 285 288 260 241 270 287 250 233 262 230 210 236 232 295 202 237 194 251 243 276 215 239 258 285 258 224 190 280 261 249 43 6 355 359 344 329 211 214 221 233 234 220 238 171 140 151 175 162 170
257 259 270 277 273 267 252 222 231 244 254 262 259 244 239 299 265 314 12 244 297 263 214 195 239 231 185 252 272 301 254 250 322 335 5 351 19 50 29 32 356 220 217 211 215 221 233 176 173 131 117 166 191 189
243 258 277 254 232 236 211 214 251 222 249 245 244 257 279 309 332 338 326 275 333 260 178 225 272 264 208 204 195 213 297 359 282 285 310 334 16 82 80 89 41 55 89 174 197 207 221 199 205 212 209 170 194 172
218 211 240 252 238 225 212 224 224 229 239 246 247 257 281 289 293 280 315 340 340 161 208 224 256 218 275 221 29 44 303 284 307 315 331 335 53 78 80 89 89 52 70 75 72 91 125 219 246 237 229 210 180 178
178 240 253 253 258 229 231 225 251 247 257 253 263 270 278 307 295 291 300 294 314 329 327 286 282 308 344 11 13 346 232 345 330 302 316 158 111 90 87 77 74 75 71 67 58 62 62 65 55 75 168 184 201 198
193 186 206 214 202 214 235 234 221 257 240 245 258 266 280 280 281 279 285 282 287 281 283 304 332 323 216 233 158 91 94 41 254 278 246 161 107 87 83 81 73 69 76 62 68 59 51 49 32 354 242 218 322 249
199 211 213 210 214 216 257 252 226 259 272 295 290 275 274 269 272 271 284 267 268 264 233 232 212 239 253 313 326 14 86 35 10 131 241 225 119 104 71 68 82 27 15 43 52 49 8 357 106 31 43 37 41 252
201 207 207 214 234 226 263 240 234 250 279 271 282 291 278 274 261 255 265 260 264 240 253 254 251 251 258 276 288 308 308 336 351 44 69 326 35 135 49 2 17 4 17 40 62 359 329 17 148 204 119 79 130 68
199 190 186 210 246 229 248 236 245 285 252 263 285 274 253 265 268 251 249 255 254 250 259 265 273 295 222 254 1 216 330 312 311 309 308 304 312 313 4 339 321 327 346 356 349 324 318 322 334 347 338 342 331 295
168 190 227 224 239 240 262 233 242 235 269 283 291 281 246 223 227 230 267 247 240 193 299 271 314 343 290 290 293 269 266 278 283 283 282 280 286 295 303 301 291 282 284 311 295 344 358 289 12 350 286 307 320 317
172 213 243 235 210 260 265 224 228 240 241 252 269 306 323 343 309 221 251 258 82 296 299 328 306 304 317 334 317 289 280 282 248 262 264 259 259 261 263 280 303 106 146 296 303 322 310 304 314 315 320 333 295 299
208 234 219 256 240 243 253 233 222 214 254 299 294 237 237 294 280 291 338 22 354 337 333 347 342 326 317 316 312 298 293 259 259 265 294 257 249 251 259 236 35 25 19 8 345 314 299 299 319 323 331 303 302 322
215 224 200 220 220 226 243 271 231 289 284 219 245 152 124 255 235 252 282 307 331 336 340 331 319 320 310 306 305 312 312 267 296 287 337 258 225 230 196 51 76 36 356 333 321 313 315 313 311 315 316 321 298 187
244 249 221 238 258 280 287 301 315 244 262 246 98 217 231 257 162 155 303 342 327 320 319 318 315 303 302 310 294 261 237 263 272 273 295 57 85 91 67 95 59 18 330 337 330 338 345 339 326 342 356 332 290 21
244 269 271 266 258 262 279 286 264 276 343 347 290 242 326 357 10 16 313 321 300 308 332 310 293 290 279 299 252 236 223 191 293 214 337 260 225 105 131 63 21 18 19 13 16 359 357 0 3 6 355 19 125 353
234 247 277 285 281 269 268 246 246 245 248 272 320 341 341 334 318 302 302 320 314 330 317 51 79 344 265 187 152 169 139 70 289 182 142 135 143 128 80 75 28 358 356 6 36 36 35 45 39 37 56 72 86 166
244 238 232 237 230 242 233 239 289 286 297 282 265 279 296 312 307 298 301 320 33 66 122 184 328 11 85 153 190 114 121 102 87 137 162 158 153 128 108 96 62 63 55 81 50 41 66 74 68 68 75 83 91 86
237 234 228 250 255 249 259 276 283 285 284 298 285 269 296 312 327 291 303 325 332 321 333 73 121 94 79 67 86 118 95 99 107 112 113 122 144 123 115 110 100 98 79 74 68 64 68 67 71 78 80 80 83 91
226 231 240 251 258 266 261 278 293 293 325 294 270 173 323 313 304 330 119 40 3 124 108 103 112 101 91 72 99 95 120 105 97 114 113 109 111 119 99 97 110 94 76 79 73 54 61 73 74 80 87 87 83 86
234 236 240 253 281 305 62 114 333 308 302 274 282 269 242 238 269 275 96 60 89 97 107 108 110 105 86 79 94 112 120 116 116 114 119 122 111 114 109 103 108 106 95 96 92 91 89 84 84 88 92 90 86 88
Wind_Speed_850mb
31 27 27 27 27 27 24 23 21 23 25 27 27 25 23 24 22 19 16 15 12 16 43 52 39 39 35 30 10 30 22 13 7 8 7 9 6 8 9 8 12 12 11 9 7 7 12 24 20 14 12 18 33 46
29 27 25 25 25 27 24 21 23 24 24 25 27 26 28 28 29 24 27 24 29 31 43 56 56 58 56 47 41 23 26 21 4 6 9 6 6 7 11 11 12 9 10 10 17 15 21 9 55 34 35 31 22 56
30 26 24 23 24 25 26 22 27 23 23 27 28 29 32 32 26 24 26 25 25 22 52 33 18 13 29 44 41 31 24 17 5 10 15 6 5 8 6 8 14 18 16 9 7 8 13 39 59 53 40 39 30 52
29 25 23 23 25 27 27 24 23 23 24 26 30 33 35 30 24 20 23 18 20 15 12 23 22 38 30 32 23 47 60 49 41 18 22 6 3 11 5 7 2 8 28 13 7 13 4 24 39 32 23 40 40 35
29 26 23 23 25 27 27 25 23 24 25 27 32 39 34 27 24 22 23 27 23 18 11 35 77 35 20 37 34 34 40 41 35 6 5 6 9 3 6 3 8 1 3 6 7 28 11 14 23 31 38 49 45 43
27 26 25 25 26 29 30 26 25 29 24 26 32 32 26 25 22 19 7 10 9 20 13 7 30 45 18 18 33 41 39 36 30 5 6 10 19 8 5 6 7 14 20 12 14 64 15 9 33 33 22 47 42 46
26 26 26 26 28 31 31 26 26 27 21 24 25 28 29 26 22 14 10 11 18 22 8 10 13 10 26 19 28 25 39 16 14 5 16 20 15 17 5 9 15 31 31 29 35 61 25 11 12 36 44 57 46 44
27 26 27 27 28 30 32 29 29 24 21 23 27 33 36 31 27 18 14 22 20 13 8 6 9 12 27 15 7 4 3 20 17 15 7 13 14 11 8 20 46 52 52 47 38 47 34 12 12 22 78 58 56 51
28 27 28 27 28 30 31 30 27 26 22 23 29 33 22 5 6 9 17 15 17 14 6 7 6 6 18 18 9 6 8 5 9 6 10 14 9 12 16 34 31 20 16 37 40 54 26 6 32 55 58 51 52 53
31 28 29 29 28 28 29 30 27 24 17 21 23 7 7 9 16 18 6 2 7 10 11 9 18 9 6 13 8 9 3 4 4 10 17 10 20 44 32 37 38 31 26 40 58 48 57 91 85 31 9 42 52 49
30 30 30 29 29 27 26 26 23 14 3 8 5 6 15 23 11 5 6 7 10 8 13 12 19 12 11 4 4 9 5 6 6 8 11 9 7 31 73 69 74 70 53 48 56 49 73 57 31 16 12 10 22 43
30 30 29 28 27 26 24 21 16 8 10 11 21 29 13 8 8 7 6 6 8 5 7 7 11 11 9 7 4 5 5 6 8 10 6 6 9 30 36 58 71 69 59 58 47 48 53 33 29 18 7 15 28 33
30 28 28 26 26 24 19 18 13 11 12 5 7 7 8 10 6 9 7 5 4 6 9 9 5 9 7 10 10 3 8 9 24 6 6 2 20 26 16 13 9 70 62 62 48 35 31 33 31 19 12 7 14 21
27 26 24 23 21 18 16 13 8 7 4 7 8 8 8 9 8 5 6 3 8 14 18 16 7 7 6 4 3 7 6 6 4 6 3 3 19 27 32 21 17 19 45 50 38 33 21 12 16 13 7 12 20 23
23 21 21 17 16 12 9 8 6 5 5 7 9 7 10 8 15 20 16 5 9 17 14 9 12 11 6 3 2 6 7 8 5 7 8 30 16 21 9 20 36 17 27 31 33 35 28 12 16 18 16 13 18 24
18 14 9 6 8 7 7 9 7 7 6 8 12 12 23 22 21 24 26 21 21 13 19 6 6 5 10 7 13 12 6 1 4 4 26 28 9 22 23 6 26 31 22 19 25 30 21 14 18 10 14 7 21 29
15 10 5 6 7 7 9 7 6 8 9 10 14 25 29 24 30 17 28 23 21 22 4 5 7 6 8 5 2 5 1 9 22 19 21 16 6 21 23 28 19 30 38 36 34 23 7 10 12 21 27 23 26 42
13 8 11 8 11 10 12 8 6 7 11 18 23 28 28 27 30 30 24 19 21 15 11 3 7 4 7 10 5 1 8 20 32 29 28 9 12 18 21 23 23 25 27 27 23 15 8 8 7 3 8 21 22 19
24 13 11 9 9 6 5 7 11 10 22 25 29 35 31 30 34 35 34 31 25 24 15 13 2 3 3 12 2 8 36 8 11 6 8 8 11 13 14 14 17 18 21 22 30 20 17 13 16 15 27 24 9 12
24 13 13 12 12 8 6 8 10 12 13 13 26 33 33 28 32 33 41 30 28 22 6 5 4 11 7 21 14 15 16 7 8 10 10 5 6 12 7 10 6 10 11 11 8 9 15 10 6 17 19 22 10 13
23 15 16 13 10 15 9 9 12 16 16 13 27 31 18 24 30 31 35 31 27 8 11 23 28 31 15 17 17 17 16 14 16 14 15 15 15 4 4 5 8 16 16 17 11 15 23 21 5 11 6 7 10 10
13 11 8 10 8 9 13 16 14 12 10 21 33 26 19 15 19 30 28 25 25 33 37 37 41 19 28 9 1 2 5 13 16 16 10 15 14 13 15 3 9 10 16 5 9 14 18 16 9 6 8 7 7 2
16 14 7 10 9 9 15 13 11 7 5 8 10 8 8 9 10 6 7 13 14 4 3 7 3 4 6 11 14 15 13 17 16 15 16 19 18 15 16 15 12 18 17 20 15 12 14 8 14 9 11 12 9 13
9 6 7 7 13 9 10 9 10 8 8 11 6 10 10 11 16 8 8 7 5 7 7 10 12 11 11 16 16 16 16 12 18 16 17 16 19 20 19 20 25 8 3 8 13 20 25 24 22 20 12 15 14 14
9 9 9 9 10 8 8 7 11 8 8 6 4 9 1 7 4 5 5 6 5 5 9 14 16 17 19 22 22 21 23 17 24 18 18 22 18 22 21 3 2 15 20 18 17 21 22 21 18 16 18 14 13 4
6 10 13 10 9 9 7 5 4 4 11 5 6 3 3 4 5 6 4 6 16 18 14 16 21 20 23 24 26 25 14 9 16 17 19 14 16 22 9 7 10 7 12 18 24 29 29 28 23 21 15 7 8 1
6 10 18 18 15 12 10 11 16 8 11 6 3 3 3 6 3 4 1 9 11 20 23 13 16 20 21 25 20 12 16 11 9 4 6 9 14 10 5 12 7 10 9 22 15 19 24 28 25 7 7 11 7 3
14 11 8 13 16 16 14 11 6 5 5 10 9 4 6 7 5 6 6 13 25 17 16 18 24 19 7 8 10 13 13 9 6 18 2 13 19 15 9 8 13 13 12 28 16 17 22 25 23 16 9 9 1 0
15 13 12 19 16 9 8 8 9 6 7 15 8 6 8 9 18 21 25 28 11 20 18 6 13 18 12 5 20 12 4 4 8 11 23 28 26 14 10 12 11 10 4 17 23 22 25 29 31 25 18 15 9 4
24 27 18 8 5 7 17 17 14 16 22 25 13 12 22 22 18 28 24 8 8 8 14 3 11 15 12 13 11 12 16 10 7 13 21 18 13 13 7 7 17 18 14 15 12 16 24 31 37 39 35 35 35 41
10 6 16 21 15 19 27 30 26 30 18 18 28 18 13 25 20 6 6 6 7 14 14 10 8 11 20 31 16 15 26 29 29 29 31 24 15 15 15 14 17 17 16 17 27 25 20 20 25 33 36 35 29 27
24 26 28 21 23 25 20 24 20 12 13 15 7 6 4 7 8 10 4 5 11 24 21 24 20 28 30 27 29 30 28 29 21 24 26 32 27 22 20 22 26 23 29 32 28 27 28 32 32 34 42 40 37 34
24 26 25 26 21 9 3 7 5 7 5 6 5 5 11 6 6 5 3 3 11 17 24 27 33 29 23 14 9 18 30 29 29 28 25 26 30 36 29 29 31 31 33 30 29 33 35 40 48 51 51 48 48 48
Wind_Direction_850mb
319 319 319 321 324 324 326 327 323 326 327 330 337 347 348 336 330 310 273 290 250 270 286 287 283 291 299 298 302 330 322 6 307 291 243 265 284 272 274 265 254 174 148 155 163 172 257 302 173 139 196 110 93 123
317 315 314 316 319 322 326 329 325 317 319 327 327 325 323 322 320 301 291 274 283 276 262 282 283 273 271 264 278 292 296 303 301 331 356 327 290 313 290 276 295 269 168 198 175 199 212 242 303 154 151 125 110 137
313 310 311 314 318 320 318 310 311 322 325 324 324 325 322 318 312 304 282 284 294 290 300 277 297 333 300 264 251 255 271 257 353 10 277 302 323 22 325 18 326 345 32 166 95 266 144 195 251 185 148 146 137 152
308 303 303 309 316 316 316 320 316 322 322 324 326 326 323 316 310 296 279 274 292 283 276 294 309 287 268 251 248 240 247 268 283 284 297 263 306 36 334 303 330 309 314 308 208 242 38 294 297 138 138 155 159 151
302 296 297 303 311 313 307 309 312 314 315 321 327 328 325 319 315 307 292 281 273 266 295 302 304 300 282 249 237 233 238 243 269 222 250 280 326 17 314 298 251 225 331 9 308 340 126 268 272 247 162 157 167 168
294 289 292 298 308 314 310 297 294 299 304 315 326 334 329 317 320 335 301 245 314 269 280 306 280 301 276 240 223 236 229 244 237 213 223 242 244 196 243 268 31 305 269 278 288 328 301 32 209 228 176 156 153 160
288 286 289 296 305 316 319 303 290 300 305 313 318 327 329 321 304 277 265 294 308 333 296 290 277 311 342 246 254 233 218 203 222 223 241 238 255 200 237 247 272 282 278 294 331 351 358 47 178 211 202 177 165 164
283 282 286 293 301 311 318 312 296 293 291 304 308 313 315 309 305 293 276 286 269 276 253 273 272 279 5 343 350 192 227 195 202 208 253 247 243 205 255 232 246 248 264 280 286 336 335 340 327 219 266 175 166 167
280 280 281 289 298 305 311 315 310 297 282 298 308 315 310 326 307 300 313 299 238 219 262 248 293 326 0 3 321 174 220 189 201 219 200 212 216 224 220 203 194 185 238 252 270 293 324 330 257 250 247 170 171 168
280 278 278 285 294 302 306 311 315 308 290 296 312 328 294 338 310 306 296 233 208 212 231 250 260 268 352 8 332 319 296 247 247 217 188 213 242 245 220 221 230 223 189 235 236 240 220 238 223 232 121 169 183 182
275 274 276 283 293 300 304 307 312 321 351 337 306 271 310 319 297 250 253 216 190 232 217 242 252 262 279 170 241 265 257 193 250 202 196 207 239 228 226 223 235 242 225 235 235 216 229 265 289 311 249 226 169 157
268 271 274 280 290 298 299 301 300 259 283 290 299 299 304 260 235 241 217 215 209 266 201 240 249 226 258 240 214 280 289 283 264 346 229 245 254 282 211 218 223 232 233 235 236 247 241 262 276 275 261 178 155 159
266 268 271 281 290 293 286 289 279 271 282 276 267 265 222 237 258 233 223 189 225 201 240 233 247 208 230 239 227 188 236 247 326 250 248 15 345 12 23 3 248 222 227 234 238 244 242 247 245 257 241 182 164 183
262 264 269 280 286 285 288 260 241 270 287 250 233 262 230 210 236 232 295 202 237 194 251 243 276 215 239 258 285 258 224 190 280 261 249 43 6 355 359 344 329 211 214 221 233 234 220 238 171 140 151 175 162 170
257 259 270 277 273 267 252 222 231 244 254 262 259 244 239 299 265 314 12 244 297 263 214 195 239 231 185 252 272 301 254 250 322 335 5 351 19 50 29 32 356 220 217 211 215 221 233 176 173 131 117 166 191 189
243 258 277 254 232 236 211 214 251 222 249 245 244 257 279 309 332 338 326 275 333 260 178 225 272 264 208 204 195 213 297 359 282 285 310 334 16 82 80 89 41 55 89 174 197 207 221 199 205 212 209 170 194 172
218 211 240 252 238 225 212 224 224 229 239 246 247 257 281 289 293 280 315 340 340 161 208 224 256 218 275 221 29 44 303 284 307 315 331 335 53 78 80 89 89 52 70 75 72 91 125 219 246 237 229 210 180 178
178 240 253 253 258 229 231 225 251 247 257 253 263 270 278 307 295 291 300 294 314 329 327 286 282 308 344 11 13 346 232 345 330 302 316 158 111 90 87 77 74 75 71 67 58 62 62 65 55 75 168 184 201 198
193 186 206 214 202 214 235 234 221 257 240 245 258 266 280 280 281 279 285 282 287 281 283 304 332 323 216 233 158 91 94 41 254 278 246 161 107 87 83 81 73 69 76 62 68 59 51 49 32 354 242 218 322 249
199 211 213 210 214 216 257 252 226 259 272 295 290 275 274 269 272 271 284 267 268 264 233 232 212 239 253 313 326 14 86 35 10 131 241 225 119 104 71 68 82 27 15 43 52 49 8 357 106 31 43 37 41 252
201 207 207 214 234 226 263 240 234 250 279 271 282 291 278 274 261 255 265 260 264 240 253 254 251 251 258 276 288 308 308 336 351 44 69 326 35 135 49 2 17 4 17 40 62 359 329 17 148 204 119 79 130 68
199 190 186 210 246 229 248 236 245 285 252 263 285 274 253 265 268 251 249 255 254 250 259 265 273 295 222 254 1 216 330 312 311 309 308 304 312 313 4 339 321 327 346 356 349 324 318 322 334 347 338 342 331 295
168 190 227 224 239 240 262 233 242 235 269 283 291 281 246 223 227 230 267 247 240 193 299 271 314 343 290 290 293 269 266 278 283 283 282 280 286 295 303 301 291 282 284 311 295 344 358 289 12 350 286 307 320 317
172 213 243 235 210 260 265 224 228 240 241 252 269 306 323 343 309 221 251 258 82 296 299 328 306 304 317 334 317 289 280 282 248 262 264 259 259 261 263 280 303 106 146 296 303 322 310 304 314 315 320 333 295 299
208 234 219 256 240 243 253 233 222 214 254 299 294 237 237 294 280 291 338 22 354 337 333 347 342 326 317 316 312 298 293 259 259 265 294 257 249 251 259 236 35 25 19 8 345 314 299 299 319 323 331 303 302 322
215 224 200 220 220 226 243 271 231 289 284 219 245 152 124 255 235 252 282 307 331 336 340 331 319 320 310 306 305 312 312 267 296 287 337 258 225 230 196 51 76 36 356 333 321 313 315 313 311 315 316 321 298 187
244 249 221 238 258 280 287 301 315 244 262 246 98 217 231 257 162 155 303 342 327 320 319 318 315 303 302 310 294 261 237 263 272 273 295 57 85 91 67 95 59 18 330 337 330 338 345 339 326 342 356 332 290 21
244 269 271 266 258 262 279 286 264 276 343 347 290 242 326 357 10 16 313 321 300 308 332 310 293 290 279 299 252 236 223 191 293 214 337 260 225 105 131 63 21 18 19 13 16 359 357 0 3 6 355 19 125 353
234 247 277 285 281 269 268 246 246 245 248 272 320 341 341 334 318 302 302 320 314 330 317 51 79 344 265 187 152 169 139 70 289 182 142 135 143 128 80 75 28 358 356 6 36 36 35 45 39 37 56 72 86 166
244 238 232 237 230 242 233 239 289 286 297 282 265 279 296 312 307 298 301 320 33 66 122 184 328 11 85 153 190 114 121 102 87 137 162 158 153 128 108 96 62 63 55 81 50 41 66 74 68 68 75 83 91 86
237 234 228 250 255 249 259 276 283 285 284 298 285 269 296 312 327 291 303 325 332 321 333 73 121 94 79 67 86 118 95 99 107 112 113 122 144 123 115 110 100 98 79 74 68 64 68 67 71 78 80 80 83 91
226 231 240 251 258 266 261 278 293 293 325 294 270 173 323 313 304 330 119 40 3 124 108 103 112 101 91 72 99 95 120 105 97 114 113 109 111 119 99 97 110 94 76 79 73 54 61 73 74 80 87 87 83 86
234 236 240 253 281 305 62 114 333 308 302 274 282 269 242 238 269 275 96 60 89 97 107 108 110 105 86 79 94 112 120 116 116 114 119 122 111 114 109 103 108 106 95 96 92 91 89 84 84 88 92 90 86 88